Regional Weather Roundup
Issued by NWS

Home | Current Version | Previous Version | Text Only | Print | Product List | Glossary Off
Versions: 1 2 3 4 5 6 7 8 9 10 11 12 13 14 15 16 17 18 19 20 21 22 23 24 25 26 27

000
ASUS45 KSLC 300310
RWRUT

UTAH REGIONAL WEATHER ROUNDUP
NATIONAL WEATHER SERVICE SALT LAKE CITY UT
900 PM MDT WED MAR 29 2017

UTZ001>011-023>025-300400-

NORTHERN UTAH

CITY           SKY/WX    TMP DP  RH WIND       PRES   REMARKS
BRIGHAM CITY   MOCLDY    50  34  53 E3        30.08F
HILL AFB       PTCLDY    48  29  47 E6        30.08F
LOGAN          CLOUDY    53  31  42 S12       30.06F
OGDEN          MOCLDY    50  30  46 SE6       30.07F
SALT LAKE CITY MOCLDY    52  37  56 CALM      30.08F
TOOELE VALLEY  CLOUDY    45  41  87 SE5       30.08F
WENDOVER       PTCLDY    54  35  48 CALM      30.06F
HEBER CITY     CLOUDY    48  28  46 SW9       30.07S
WEST JORDAN    PTCLDY    52  42  69 CALM      30.10S

$$

UTZ011>015-024>027-300400-

CENTRAL/NORTHEAST UTAH

CITY           SKY/WX    TMP DP  RH WIND       PRES   REMARKS
PROVO AIRPORT  PTCLDY    49  38  65 CALM      30.10F
MOAB/CANYONLAN CLEAR     50  19  29 W6        30.00S
DELTA          PTCLDY    45  36  70 SE8       30.10F
PRICE          CLEAR     48  30  49 NW10      30.06S
RICHFIELD      CLEAR     50  32  50 CALM      30.14S
ROOSEVELT      CLEAR     50  36  57 CALM      30.05S
VERNAL         CLOUDY    47  29  49 CALM      30.04R

$$

UTZ013>016-019>022-027-300400-

SOUTHERN UTAH

CITY           SKY/WX    TMP DP  RH WIND       PRES   REMARKS
BRYCE CANYON   CLEAR     44  28  53 NW16      30.16R
CEDAR CITY     PTCLDY    46  33  60 CALM      30.10F
MILFORD        CLEAR     45  35  68 NE5       30.09F
ST GEORGE      CLEAR     66  28  24 SW7       30.02R
HANKSVILLE     CLEAR     46  16  29 CALM      30.03S
KANAB          CLEAR     54  27  35 S5        30.10S
BLANDING       CLEAR     46  21  37 NW9       30.13R

$$

REGIONAL REPORTS     COLORADO/ARIZONA

CITY           SKY/WX    TMP DP  RH WIND       PRES   REMARKS
CRAIG, CO      CLEAR     39  28  64 NW6       30.05S WCI  35
GRAND JUNCTION CLEAR     50  28  42 NE7       30.01R
RIFLE, CO      CLEAR     47  26  44 W6        30.04R
MONTROSE, CO   CLEAR     48  27  44 S6        30.07R
CORTEZ, CO     CLEAR     51  22  31 NW10      30.05R
COLORADO CITY    N/A     52  30  43 CALM      30.11S
PAGE, AZ       CLEAR     62  19  19 S3        30.00S
GRAND CANYON   CLEAR     38  27  64 CALM      30.15R
KINGMAN, AZ    CLEAR     56  10  16 E9        30.06R
FLAGSTAFF, AZ  CLEAR     40  23  50 CALM      30.15R

$$

REGIONAL REPORTS    NEVADA/IDAHO/WYOMING

CITY           SKY/WX    TMP DP  RH WIND       PRES   REMARKS
LAS VEGAS, NV  PTCLDY    73  22  14 CALM      29.98S
ELY, NY        MOCLDY    47  33  58 SE8       30.10F
ELKO, NV       CLOUDY    53  39  59 SW5       30.05F
POCATELLO, ID  CLOUDY    51  38  60 S10       30.02F
BURLEY, ID     CLOUDY    53  41  63 S8        29.98F
FORT BRIDGER,    N/A     43  30  61 W17       30.11S
EVANSTON, WY   CLOUDY    40  26  57 W14       30.11S WCI  32
ROCK SPRINGS,  CLOUDY    43  29  57 W12       30.04R
KEMMERER, WY     N/A     37  32  81 W10       30.10R WCI  30

$$




USA.gov is the U.S. government's official web portal to all federal, state and local government web resources and services.